Weather History for Bloomington, IN

Change the Weather History Date:

Wednesday, January 30, 2013

  Actual Average Record
Temperature  
Mean Temperature 48 °F 30 °F  
Max Temperature 68 °F 40 °F 68 °F (2013)
Min Temperature 27 °F 21 °F -11 °F (2004)
Degree Days  
Heating Degree Days 17 35  
Month to date heating degree days 986 1072  
Since 1 July heating degree days 3000 3145  
Cooling Degree Days 0 0  
Month to date cooling degree days 0 0  
Year to date cooling degree days 0 0  
Moisture  
Dew Point 42 °F    
Average Humidity 82    
Maximum Humidity 96    
Minimum Humidity 68    
Precipitation  
Precipitation 0.99 in 0.08 in 0.99 in (2013)
Month to date precipitation 5.45 3.21  
Year to date precipitation 5.45 3.21  
Sea Level Pressure  
Sea Level Pressure 29.42 in    
Wind  
Wind Speed 14 mph (West)    
Max Wind Speed 39 mph    
Max Gust Speed 63 mph    
Visibility 7 miles    
Events Rain , Snow    
T = Trace of Precipitation, MM = Missing Value Source: NWS Daily Summary

Daily Weather History Graph

Daily Weather History Graph

Search for Another Location

Airport:

Trip Planner

Search our weather history database for the weather conditions in past years. The results will help you decide how hot, cold, wet, or windy it might be!

Date:

Astronomy

Jan. 30, 2013 Rise Set
Actual Time 7:54 AM EST 6:05 PM EST
Civil Twilight 7:26 AM EST 6:33 PM EST
Nautical Twilight 6:54 AM EST 7:05 PM EST
Astronomical Twilight 6:22 AM EST 7:37 PM EST
Moon 10:01 PM EST (1/30) 9:24 AM EST (1/30)
Length of Visible Light 11h 07m
Length of Day
10h 10m
Waning Gibbous, 88% of the Moon is Illuminated
Jan 30
Waning Gibbous
Feb 3
Last Quarter
Feb 10
New
Feb 17
First Quarter
Feb 25
Full

Hourly Weather History & Observations

Time (EST) Temp. Windchill Dew Point Humidity Pressure Visibility Wind Dir Wind Speed Gust Speed Precip Events Conditions
12:53 AM 68.0 °F - 57.0 °F 68% 29.38 in 10.0 mi South 32.2 mph 43.7 mph N/A   Overcast
1:29 AM 57.2 °F - 51.8 °F 82% 29.43 in 2.5 mi NW 23.0 mph 63.3 mph 0.06 in Rain Heavy Rain
1:32 AM 55.4 °F - 51.8 °F 88% 29.43 in 1.5 mi NW 17.3 mph 63.3 mph 0.09 in Rain Heavy Rain
1:47 AM 53.6 °F - 48.2 °F 82% 29.46 in 3.0 mi NW 13.8 mph 32.2 mph 0.17 in Rain Light Rain
2:03 AM 53.6 °F - 48.2 °F 82% 29.46 in 2.5 mi NNW 11.5 mph 24.2 mph 0.07 in Rain Rain
2:10 AM 53.6 °F - 48.2 °F 82% 29.47 in 4.0 mi NNW 10.4 mph 21.9 mph 0.08 in Rain Rain
2:53 AM 52.0 °F - 48.9 °F 89% 29.45 in 3.0 mi North 8.1 mph - 0.21 in Rain Rain
3:53 AM 52.0 °F - 50.0 °F 93% 29.45 in 4.0 mi Calm Calm - 0.14 in Rain Rain
4:28 AM 51.8 °F - 50.0 °F 94% 29.48 in 2.5 mi WNW 3.5 mph - 0.13 in Rain Heavy Rain
4:53 AM 51.1 °F - 48.9 °F 92% 29.44 in 3.0 mi North 3.5 mph - 0.25 in Rain Rain
5:53 AM 51.1 °F - 48.9 °F 92% 29.39 in 7.0 mi SE 4.6 mph - 0.06 in Rain Light Rain
6:19 AM 51.8 °F - 48.2 °F 88% 29.42 in 10.0 mi SSE 8.1 mph - 0.01 in Rain Light Rain
6:53 AM 51.1 °F - 48.9 °F 92% 29.37 in 10.0 mi SE 9.2 mph - 0.02 in Rain Light Rain
7:53 AM 51.1 °F - 48.9 °F 92% 29.35 in 9.0 mi SE 11.5 mph - 0.00 in   Overcast
8:42 AM 51.8 °F - 48.2 °F 88% 29.39 in 10.0 mi South 8.1 mph - N/A   Overcast
8:53 AM 51.1 °F - 48.9 °F 92% 29.40 in 10.0 mi South 8.1 mph - N/A   Mostly Cloudy
9:53 AM 52.0 °F - 48.9 °F 89% 29.39 in 10.0 mi SSW 13.8 mph 19.6 mph N/A   Overcast
10:26 AM 53.6 °F - 48.2 °F 82% 29.39 in 10.0 mi SW 16.1 mph 21.9 mph N/A   Overcast
10:53 AM 53.1 °F - 48.0 °F 83% 29.39 in 10.0 mi SSW 17.3 mph 23.0 mph N/A   Overcast
11:53 AM 54.0 °F - 48.0 °F 80% 29.36 in 10.0 mi SSW 15.0 mph 28.8 mph N/A   Overcast
12:53 PM 54.0 °F - 46.9 °F 77% 29.35 in 10.0 mi SSW 13.8 mph 25.3 mph N/A   Overcast
1:45 PM 53.6 °F - 46.4 °F 77% 29.30 in 10.0 mi SSW 9.2 mph 24.2 mph N/A   Overcast
1:53 PM 54.0 °F - 48.0 °F 80% 29.29 in 10.0 mi SW 12.7 mph 23.0 mph N/A   Mostly Cloudy
2:16 PM 53.6 °F - 46.4 °F 77% 29.30 in 10.0 mi SW 15.0 mph 24.2 mph 0.00 in Rain Light Rain
2:57 PM 44.6 °F 37.2 °F 41.0 °F 87% 29.33 in 10.0 mi WNW 17.3 mph 26.5 mph 0.00 in Rain Light Rain
3:14 PM 44.6 °F 37.4 °F 41.0 °F 87% 29.36 in 10.0 mi West 16.1 mph 23.0 mph 0.00 in Rain Light Rain
3:35 PM 42.8 °F 36.2 °F 37.4 °F 81% 29.36 in 7.0 mi West 12.7 mph 23.0 mph 0.01 in Rain Light Rain
3:53 PM 41.0 °F 33.5 °F 37.0 °F 86% 29.36 in 3.0 mi WNW 13.8 mph 27.6 mph 0.05 in Rain Rain
4:18 PM 39.2 °F 31.2 °F 35.6 °F 87% 29.37 in 5.0 mi WNW 13.8 mph 24.2 mph 0.02 in Rain Light Rain
4:53 PM 39.0 °F 31.0 °F 35.1 °F 86% 29.41 in 6.0 mi West 13.8 mph 26.5 mph 0.04 in Rain Light Rain
5:53 PM 37.0 °F 27.7 °F 33.1 °F 86% 29.43 in 6.0 mi West 16.1 mph 36.8 mph 0.02 in Rain Light Rain
6:11 PM 35.6 °F 24.5 °F 30.2 °F 81% 29.44 in 4.0 mi WNW 20.7 mph 32.2 mph 0.00 in Snow Light Snow
6:53 PM 34.0 °F 23.8 °F 28.0 °F 79% 29.49 in 10.0 mi West 16.1 mph 26.5 mph 0.01 in   Overcast
7:53 PM 32.0 °F 21.6 °F 25.0 °F 75% 29.53 in 10.0 mi West 15.0 mph 27.6 mph 0.00 in   Overcast
8:53 PM 30.9 °F 19.1 °F 23.0 °F 72% 29.56 in 10.0 mi WNW 18.4 mph 28.8 mph N/A   Overcast
9:53 PM 30.0 °F 18.3 °F 21.9 °F 72% 29.61 in 10.0 mi West 17.3 mph 21.9 mph N/A   Overcast
10:53 PM 28.9 °F 15.8 °F 21.0 °F 72% 29.66 in 9.0 mi West 20.7 mph 28.8 mph 0.00 in Snow Light Snow
11:53 PM 27.0 °F 12.5 °F 19.9 °F 75% 29.70 in 8.0 mi West 23.0 mph 31.1 mph 0.00 in   Overcast